Time,TemperatureF,DewpointF,PressureIn,WindDirection,WindDirectionDegrees,WindSpeedMPH,WindSpeedGustMPH,Humidity,HourlyPrecipIn,Conditions,Clouds,dailyrainin,SoftwareType,DateUTC
2013-01-20 00:07:00,59.4,50.0,30.20,NNW,346,0.0,1.0,70,0.00,,,0.00,weatherlink.com 1.10,2013-01-20 05:07:00,
2013-01-20 00:22:00,59.3,50.0,30.20,NE,34,0.0,3.0,70,0.00,,,0.00,weatherlink.com 1.10,2013-01-20 05:22:00,
2013-01-20 00:37:00,59.3,49.0,30.19,North,355,0.0,1.0,69,0.00,,,0.00,weatherlink.com 1.10,2013-01-20 05:37:00,
2013-01-20 00:52:00,59.2,49.0,30.18,North,360,0.0,1.0,69,0.00,,,0.00,weatherlink.com 1.10,2013-01-20 05:52:00,
2013-01-20 01:07:00,59.1,48.0,30.18,NNE,24,0.0,2.0,68,0.00,,,0.00,weatherlink.com 1.10,2013-01-20 06:07:00,
2013-01-20 01:22:00,59.0,48.0,30.17,NNE,28,0.0,2.0,68,0.00,,,0.00,weatherlink.com 1.10,2013-01-20 06:22:00,
2013-01-20 01:37:00,58.9,48.0,30.17,North,5,0.0,2.0,67,0.00,,,0.00,weatherlink.com 1.10,2013-01-20 06:37:00,
2013-01-20 01:52:00,59.0,48.0,30.16,North,5,0.0,1.0,67,0.00,,,0.00,weatherlink.com 1.10,2013-01-20 06:52:00,
2013-01-20 02:07:00,59.1,48.0,30.16,NNE,24,0.0,0.0,67,0.00,,,0.00,weatherlink.com 1.10,2013-01-20 07:07:00,
2013-01-20 02:22:00,59.0,48.0,30.16,North,5,0.0,2.0,66,0.00,,,0.00,weatherlink.com 1.10,2013-01-20 07:22:00,
2013-01-20 02:37:00,59.0,48.0,30.16,NE,42,0.0,2.0,66,0.00,,,0.00,weatherlink.com 1.10,2013-01-20 07:37:00,
2013-01-20 02:52:00,58.9,47.0,30.16,NNE,24,0.0,3.0,66,0.00,,,0.00,weatherlink.com 1.10,2013-01-20 07:52:00,
2013-01-20 03:07:00,58.8,47.0,30.16,NNE,24,0.0,2.0,66,0.00,,,0.00,weatherlink.com 1.10,2013-01-20 08:07:00,
2013-01-20 03:22:00,58.7,47.0,30.17,NE,43,0.0,1.0,66,0.00,,,0.00,weatherlink.com 1.10,2013-01-20 08:22:00,
2013-01-20 03:37:00,58.6,47.0,30.17,NNE,27,0.0,2.0,66,0.00,,,0.00,weatherlink.com 1.10,2013-01-20 08:37:00,
2013-01-20 03:52:00,58.6,47.0,30.17,NNE,28,0.0,3.0,66,0.00,,,0.00,weatherlink.com 1.10,2013-01-20 08:52:00,
2013-01-20 04:07:00,58.5,47.0,30.16,North,355,0.0,2.0,66,0.00,,,0.00,weatherlink.com 1.10,2013-01-20 09:07:00,
2013-01-20 04:22:00,58.3,47.0,30.17,NNE,28,0.0,2.0,66,0.00,,,0.00,weatherlink.com 1.10,2013-01-20 09:22:00,
2013-01-20 04:37:00,58.2,47.0,30.16,NNW,346,0.0,2.0,66,0.00,,,0.00,weatherlink.com 1.10,2013-01-20 09:37:00,
2013-01-20 04:52:00,58.2,47.0,30.17,ENE,57,0.0,3.0,66,0.00,,,0.00,weatherlink.com 1.10,2013-01-20 09:52:00,
2013-01-20 05:07:00,58.1,47.0,30.16,NNE,17,0.0,2.0,66,0.00,,,0.00,weatherlink.com 1.10,2013-01-20 10:07:00,
2013-01-20 05:22:00,58.1,47.0,30.16,North,9,0.0,2.0,66,0.00,,,0.00,weatherlink.com 1.10,2013-01-20 10:22:00,
2013-01-20 05:37:00,58.0,47.0,30.16,North,355,0.0,2.0,66,0.00,,,0.00,weatherlink.com 1.10,2013-01-20 10:37:00,
2013-01-20 05:52:00,58.0,46.0,30.17,NNE,21,0.0,2.0,65,0.00,,,0.00,weatherlink.com 1.10,2013-01-20 10:52:00,
2013-01-20 06:07:00,58.1,46.0,30.17,North,350,0.0,2.0,65,0.00,,,0.00,weatherlink.com 1.10,2013-01-20 11:07:00,
2013-01-20 06:23:00,58.0,46.0,30.17,NNE,26,0.0,2.0,65,0.00,,,0.00,weatherlink.com 1.10,2013-01-20 11:23:00,
2013-01-20 06:38:00,57.8,46.0,30.17,NE,42,2.0,2.0,66,0.00,,,0.00,weatherlink.com 1.10,2013-01-20 11:38:00,
2013-01-20 06:53:00,57.8,46.0,30.18,NNW,345,0.0,3.0,65,0.00,,,0.00,weatherlink.com 1.10,2013-01-20 11:53:00,
2013-01-20 07:08:00,57.9,46.0,30.19,North,9,0.0,6.0,65,0.00,,,0.00,weatherlink.com 1.10,2013-01-20 12:08:00,
2013-01-20 07:23:00,57.8,46.0,30.19,North,5,0.0,6.0,65,0.00,,,0.00,weatherlink.com 1.10,2013-01-20 12:23:00,
2013-01-20 07:38:00,57.7,46.0,30.19,North,360,0.0,2.0,65,0.00,,,0.00,weatherlink.com 1.10,2013-01-20 12:38:00,
2013-01-20 07:53:00,57.7,46.0,30.20,North,355,0.0,1.0,65,0.00,,,0.00,weatherlink.com 1.10,2013-01-20 12:53:00,
2013-01-20 08:08:00,57.8,46.0,30.19,NNE,28,0.0,2.0,65,0.00,,,0.00,weatherlink.com 1.10,2013-01-20 13:08:00,
2013-01-20 08:23:00,57.9,46.0,30.19,NNE,22,0.0,1.0,65,0.00,,,0.00,weatherlink.com 1.10,2013-01-20 13:23:00,
2013-01-20 08:38:00,58.0,46.0,30.20,WNW,291,0.0,4.0,65,0.00,,,0.00,weatherlink.com 1.10,2013-01-20 13:38:00,
2013-01-20 08:53:00,58.3,46.0,30.21,NNW,347,0.0,1.0,65,0.00,,,0.00,weatherlink.com 1.10,2013-01-20 13:53:00,
2013-01-20 09:08:00,58.6,47.0,30.22,North,5,0.0,1.0,65,0.00,,,0.00,weatherlink.com 1.10,2013-01-20 14:08:00,
2013-01-20 09:23:00,59.1,47.0,30.21,NNE,21,0.0,1.0,65,0.00,,,0.00,weatherlink.com 1.10,2013-01-20 14:23:00,
2013-01-20 09:38:00,59.7,49.0,30.22,NNE,17,0.0,2.0,67,0.00,,,0.00,weatherlink.com 1.10,2013-01-20 14:38:00,
2013-01-20 09:53:00,60.6,52.0,30.22,North,355,0.0,3.0,74,0.00,,,0.00,weatherlink.com 1.10,2013-01-20 14:53:00,
2013-01-20 10:08:00,61.8,55.0,30.21,North,9,0.0,3.0,79,0.00,,,0.00,weatherlink.com 1.10,2013-01-20 15:08:00,
2013-01-20 10:23:00,63.3,57.0,30.21,NE,49,0.0,4.0,81,0.00,,,0.00,weatherlink.com 1.10,2013-01-20 15:23:00,
2013-01-20 10:38:00,64.5,58.0,30.21,North,5,0.0,5.0,80,0.00,,,0.00,weatherlink.com 1.10,2013-01-20 15:38:00,
2013-01-20 10:53:00,65.7,59.0,30.20,NE,42,1.0,5.0,79,0.00,,,0.00,weatherlink.com 1.10,2013-01-20 15:53:00,
2013-01-20 11:08:00,66.7,59.0,30.20,NE,36,0.0,3.0,77,0.00,,,0.00,weatherlink.com 1.10,2013-01-20 16:08:00,
2013-01-20 11:23:00,67.9,60.0,30.20,NE,35,0.0,5.0,75,0.00,,,0.00,weatherlink.com 1.10,2013-01-20 16:23:00,
2013-01-20 11:38:00,68.5,60.0,30.19,North,5,0.0,5.0,73,0.00,,,0.00,weatherlink.com 1.10,2013-01-20 16:38:00,
2013-01-20 11:53:00,68.2,59.0,30.18,NNE,18,1.0,4.0,73,0.00,,,0.00,weatherlink.com 1.10,2013-01-20 16:53:00,
2013-01-20 12:08:00,69.3,60.0,30.17,NE,51,0.0,5.0,73,0.00,,,0.00,weatherlink.com 1.10,2013-01-20 17:08:00,
2013-01-20 12:23:00,69.8,60.0,30.16,NNE,25,2.0,7.0,71,0.00,,,0.00,weatherlink.com 1.10,2013-01-20 17:23:00,
2013-01-20 12:39:00,69.2,59.0,30.14,NE,34,0.0,6.0,71,0.00,,,0.00,weatherlink.com 1.10,2013-01-20 17:39:00,
2013-01-20 12:54:00,69.8,60.0,30.14,NNE,31,0.0,6.0,70,0.00,,,0.00,weatherlink.com 1.10,2013-01-20 17:54:00,
2013-01-20 13:09:00,71.0,61.0,30.12,North,360,0.0,4.0,70,0.00,,,0.00,weatherlink.com 1.10,2013-01-20 18:09:00,
2013-01-20 13:24:00,71.5,60.0,30.12,ENE,72,3.0,7.0,68,0.00,,,0.00,weatherlink.com 1.10,2013-01-20 18:24:00,
2013-01-20 13:39:00,71.0,60.0,30.11,SE,130,1.0,7.0,68,0.00,,,0.00,weatherlink.com 1.10,2013-01-20 18:39:00,
2013-01-20 13:54:00,70.9,60.0,30.10,East,84,0.0,5.0,68,0.00,,,0.00,weatherlink.com 1.10,2013-01-20 18:54:00,
2013-01-20 14:09:00,71.2,61.0,30.10,NW,323,0.0,7.0,69,0.00,,,0.00,weatherlink.com 1.10,2013-01-20 19:09:00,
2013-01-20 14:24:00,71.6,60.0,30.09,North,11,0.0,4.0,67,0.00,,,0.00,weatherlink.com 1.10,2013-01-20 19:24:00,
2013-01-20 14:39:00,71.5,59.0,30.09,NNE,32,0.0,4.0,66,0.00,,,0.00,weatherlink.com 1.10,2013-01-20 19:39:00,
2013-01-20 14:54:00,71.4,59.0,30.09,NE,48,0.0,5.0,66,0.00,,,0.00,weatherlink.com 1.10,2013-01-20 19:54:00,
2013-01-20 15:09:00,71.3,59.0,30.08,ENE,57,3.0,3.0,66,0.00,,,0.00,weatherlink.com 1.10,2013-01-20 20:09:00,
2013-01-20 15:24:00,72.8,60.0,30.08,ENE,65,0.0,6.0,65,0.00,,,0.00,weatherlink.com 1.10,2013-01-20 20:24:00,
2013-01-20 15:39:00,72.8,60.0,30.08,East,96,1.0,3.0,65,0.00,,,0.00,weatherlink.com 1.10,2013-01-20 20:39:00,
2013-01-20 15:54:00,72.8,60.0,30.08,ENE,74,3.0,5.0,65,0.00,,,0.00,weatherlink.com 1.10,2013-01-20 20:54:00,
2013-01-20 16:09:00,72.1,60.0,30.08,ENE,70,0.0,4.0,65,0.00,,,0.00,weatherlink.com 1.10,2013-01-20 21:09:00,
2013-01-20 16:24:00,71.6,60.0,30.09,East,94,0.0,3.0,66,0.00,,,0.00,weatherlink.com 1.10,2013-01-20 21:24:00,
2013-01-20 16:39:00,73.3,60.0,30.08,NE,42,4.0,5.0,64,0.00,,,0.00,weatherlink.com 1.10,2013-01-20 21:39:00,
2013-01-20 16:54:00,73.5,60.0,30.08,ENE,65,1.0,6.0,62,0.00,,,0.00,weatherlink.com 1.10,2013-01-20 21:54:00,
2013-01-20 17:09:00,72.4,59.0,30.09,ENE,64,0.0,2.0,63,0.00,,,0.00,weatherlink.com 1.10,2013-01-20 22:09:00,
2013-01-20 17:24:00,71.0,59.0,30.09,ENE,69,0.0,2.0,66,0.00,,,0.00,weatherlink.com 1.10,2013-01-20 22:24:00,
2013-01-20 17:39:00,70.3,59.0,30.09,ENE,69,0.0,0.0,67,0.00,,,0.00,weatherlink.com 1.10,2013-01-20 22:39:00,
2013-01-20 17:54:00,69.2,58.0,30.09,NNE,27,0.0,3.0,68,0.00,,,0.00,weatherlink.com 1.10,2013-01-20 22:54:00,
2013-01-20 18:09:00,68.4,58.0,30.10,ENE,65,0.0,1.0,69,0.00,,,0.00,weatherlink.com 1.10,2013-01-20 23:09:00,
2013-01-20 18:24:00,67.6,56.0,30.10,ENE,58,0.0,7.0,66,0.00,,,0.00,weatherlink.com 1.10,2013-01-20 23:24:00,
2013-01-20 18:39:00,66.5,55.0,30.10,East,96,0.0,4.0,66,0.00,,,0.00,weatherlink.com 1.10,2013-01-20 23:39:00,
2013-01-20 18:54:00,65.6,54.0,30.10,ENE,57,0.0,2.0,66,0.00,,,0.00,weatherlink.com 1.10,2013-01-20 23:54:00,
2013-01-20 19:09:00,64.6,53.0,30.11,East,81,0.0,5.0,66,0.00,,,0.00,weatherlink.com 1.10,2013-01-21 00:09:00,
2013-01-20 19:24:00,64.0,52.0,30.11,ESE,111,0.0,2.0,66,0.00,,,0.00,weatherlink.com 1.10,2013-01-21 00:24:00,
2013-01-20 19:39:00,63.4,52.0,30.11,ENE,70,0.0,4.0,66,0.00,,,0.00,weatherlink.com 1.10,2013-01-21 00:39:00,
2013-01-20 19:54:00,62.7,52.0,30.11,ENE,70,0.0,0.0,68,0.00,,,0.00,weatherlink.com 1.10,2013-01-21 00:54:00,
2013-01-20 20:09:00,61.9,52.0,30.11,ENE,70,0.0,0.0,69,0.00,,,0.00,weatherlink.com 1.10,2013-01-21 01:09:00,
2013-01-20 20:24:00,61.3,52.0,30.12,ENE,78,0.0,0.0,71,0.00,,,0.00,weatherlink.com 1.10,2013-01-21 01:24:00,
2013-01-20 20:39:00,61.3,52.0,30.12,ESE,103,0.0,0.0,71,0.00,,,0.00,weatherlink.com 1.10,2013-01-21 01:39:00,
2013-01-20 20:54:00,61.3,52.0,30.12,ESE,103,0.0,0.0,71,0.00,,,0.00,weatherlink.com 1.10,2013-01-21 01:54:00,
2013-01-20 21:09:00,61.1,52.0,30.12,ESE,103,0.0,0.0,72,0.00,,,0.00,weatherlink.com 1.10,2013-01-21 02:09:00,
2013-01-20 21:24:00,61.0,52.0,30.13,ESE,103,0.0,0.0,72,0.00,,,0.00,weatherlink.com 1.10,2013-01-21 02:24:00,
2013-01-20 21:39:00,61.0,52.0,30.13,East,95,0.0,1.0,73,0.00,,,0.00,weatherlink.com 1.10,2013-01-21 02:39:00,
2013-01-20 21:54:00,61.0,52.0,30.12,East,94,0.0,0.0,73,0.00,,,0.00,weatherlink.com 1.10,2013-01-21 02:54:00,
2013-01-20 22:09:00,60.9,53.0,30.12,East,94,0.0,0.0,74,0.00,,,0.00,weatherlink.com 1.10,2013-01-21 03:09:00,
2013-01-20 22:24:00,61.0,53.0,30.13,East,94,0.0,0.0,74,0.00,,,0.00,weatherlink.com 1.10,2013-01-21 03:24:00,
2013-01-20 22:39:00,61.2,53.0,30.12,East,94,0.0,0.0,74,0.00,,,0.00,weatherlink.com 1.10,2013-01-21 03:39:00,
2013-01-20 22:54:00,61.1,53.0,30.12,East,94,0.0,0.0,75,0.00,,,0.00,weatherlink.com 1.10,2013-01-21 03:54:00,
2013-01-20 23:09:00,60.9,53.0,30.12,East,94,0.0,0.0,75,0.00,,,0.00,weatherlink.com 1.10,2013-01-21 04:09:00,
2013-01-20 23:24:00,60.8,53.0,30.12,East,94,0.0,0.0,75,0.00,,,0.00,weatherlink.com 1.10,2013-01-21 04:24:00,
2013-01-20 23:39:00,60.7,53.0,30.12,East,94,0.0,0.0,76,0.00,,,0.00,weatherlink.com 1.10,2013-01-21 04:39:00,
2013-01-20 23:54:00,60.8,53.0,30.12,East,94,0.0,0.0,76,0.00,,,0.00,weatherlink.com 1.10,2013-01-21 04:54:00,